EW5954 Weather Reports


time (UTC)temp
F
wind
direction
speed
knots
gust
knots
rain 1hr
in
rain 24hr
in
rain mn
in
humidity
%
barometer
mb
20260503224047 50 41 1.7 2.6 0.00 0.04 0.04 87
20260503223544 50 75 0.9 2.6 0.00 0.04 0.04 87
20260503223039 50 27 0.0 0.9 0.00 0.04 0.04 88
20260503222538 50 4 0.9 1.7 0.00 0.04 0.04 87
20260503222036 50 74 1.7 4.3 0.00 0.04 0.04 87
20260503221534 50 64 2.6 2.6 0.00 0.04 0.04 87
20260503221031 50 65 1.7 4.3 0.00 0.04 0.04 87
20260503220527 50 282 0.0 1.7 0.00 0.04 0.04 88
20260503220024 50 58 1.7 4.3 0.00 0.04 0.04 87
20260503215521 49 24 0.9 1.7 0.05 0.04 0.04 87
20260503215018 49 19 1.7 2.6 0.12 0.04 0.04 86
20260503214516 50 51 0.9 7.0 0.07 0.03 0.03 85
20260503214012 50 63 0.9 2.6 0.00 0.02 0.02 85
20260503213511 50 310 2.6 5.2 0.05 0.02 0.02 85
20260503213007 50 6 2.6 6.1 0.05 0.02 0.02 84
20260503212505 50 52 5.2 7.0 0.00 0.01 0.01 83
20260503212002 51 73 3.5 11.3 0.00 0.01 0.01 80
20260503211459 52 142 7.8 9.6 0.00 0.01 0.01 78
20260503210954 52 359 1.7 5.2 0.00 0.01 0.01 78
20260503210451 52 340 2.6 7.0 0.00 0.01 0.01 79
20260503205946 51 10 0.9 12.2 0.07 0.01 0.01 80
20260503205443 51 22 3.5 7.0 0.07 0.01 0.01 81
20260503204939 51 92 6.1 7.8 0.00 0.00 0.00 81
20260503204436 51 53 2.6 6.1 0.00 0.00 0.00 81
20260503203933 52 77 2.6 11.3 0.00 0.00 0.00 79
20260503203431 52 76 5.2 7.8 0.00 0.00 0.00 77
20260503202927 54 75 4.3 9.6 0.00 0.00 0.00 73
20260503202426 55 62 4.3 15.6 0.00 0.00 0.00 62
20260503201924 57 288 7.0 9.6 0.00 0.00 0.00 54
20260503201421 57 117 3.5 7.0 0.00 0.00 0.00 52
20260503200918 57 33 4.3 9.6 0.00 0.00 0.00 52
20260503200414 57 351 6.1 7.8 0.00 0.00 0.00 51
20260503195911 56 251 3.5 17.4 0.00 0.00 0.00 54
20260503195409 56 64 6.1 7.8 0.00 0.00 0.00 56
20260503194905 58 149 7.8 12.2 0.00 0.00 0.00 51
20260503194402 59 49 0.9 4.3 0.00 0.00 0.00 50
20260503193858 58 341 1.7 2.6 0.00 0.00 0.00 52
20260503193353 57 190 0.9 5.2 0.00 0.00 0.00 54
20260503192849 57 143 2.6 7.8 0.00 0.00 0.00 54
20260503192345 57 113 0.0 4.3 0.00 0.00 0.00 53
20260503191842 58 27 3.5 8.7 0.00 0.00 0.00 49
20260503191339 59 56 4.3 6.1 0.00 0.00 0.00 44
20260503190835 59 143 3.5 11.3 0.00 0.00 0.00 44
20260503190332 59 117 2.6 6.1 0.00 0.00 0.00 42
20260503185829 59 206 2.6 5.2 0.00 0.00 0.00 42
20260503185325 59 1 1.7 4.3 0.00 0.00 0.00 41
20260503184820 61 156 0.9 7.0 0.00 0.00 0.00 42
20260503184316 61 56 2.6 5.2 0.00 0.00 0.00 40
20260503183812 61 105 0.9 4.3 0.00 0.00 0.00 40
20260503183309 61 256 4.3 7.0 0.00 0.00 0.00 39
20260503182807 61 56 0.9 7.8 0.00 0.00 0.00 40
20260503182306 61 8 1.7 5.2 0.00 0.00 0.00 41
20260503181802 62 27 0.9 4.3 0.00 0.00 0.00 41
20260503181259 61 217 2.6 7.0 0.00 0.00 0.00 40
20260503180756 61 38 1.7 7.0 0.00 0.00 0.00 40
20260503180254 62 152 2.6 5.2 0.00 0.00 0.00 41
20260503175750 61 172 4.3 7.8 0.00 0.00 0.00 40
20260503175248 62 223 0.9 7.8 0.00 0.00 0.00 40
20260503174743 62 347 4.3 7.0 0.00 0.00 0.00 39
20260503174242 61 273 1.7 6.1 0.00 0.00 0.00 39
20260503173737 61 348 1.7 7.0 0.00 0.00 0.00 41
20260503173233 60 14 0.9 4.3 0.00 0.00 0.00 40
20260503172730 61 215 5.2 8.7 0.00 0.00 0.00 40
20260503172227 60 218 2.6 4.3 0.00 0.00 0.00 39
20260503171723 59 359 1.7 5.2 0.00 0.00 0.00 41
20260503171221 59 339 0.9 4.3 0.00 0.00 0.00 41
20260503170718 58 331 0.0 5.2 0.00 0.00 0.00 41
20260503170215 58 341 1.7 7.8 0.00 0.00 0.00 41
20260503160136 55 334 0.9 2.6 0.00 0.00 0.00 43
20260503150606 54 181 0.0 1.7 0.00 0.00 0.00 42
20260503130955 45 51 4.3 5.2 0.00 0.00 0.00 58
20260503130453 45 279 1.7 1.7 0.00 0.00 0.00 60
20260503110338 34 150 0.9 4.3 0.00 0.00 0.00 79
20260503090224 34 73 0.9 1.7 0.00 0.00 0.00 69
20260503081156 35 15 0.0 0.9 0.00 0.00 0.00 65
20260503080652 35 28 0.9 1.7 0.00 0.00 0.00 65
20260503080149 34 39 0.0 1.7 0.00 0.00 0.00 65
20260503072626 34 6 0.0 0.9 0.00 0.00 0.00 64
20260503072123 34 11 0.0 0.9 0.00 0.00 0.00 65
20260503071620 34 28 0.0 0.9 0.00 0.00 0.00 65
20260503071116 34 45 0.9 1.7 0.00 0.00 0.00 65
20260503070614 34 30 0.9 0.9 0.00 0.00 0.00 65
20260503070112 34 50 0.9 0.9 0.00 0.00 0.00 65
20260503055032 33 15 0.0 0.0 0.00 0.00 0.00 69
20260503054528 34 8 0.0 0.0 0.00 0.00 0.00 68
20260503054025 34 14 0.0 0.0 0.00 0.00 0.00 66
20260503053523 34 1 0.0 0.0 0.00 0.00 0.00 66
20260503053021 35 359 0.0 0.0 0.00 0.00 0.00 64
20260503052517 35 3 0.0 0.9 0.00 0.00 0.00 64
20260503052014 34 26 0.0 0.9 0.00 0.00 0.00 65
20260503051509 34 62 0.9 0.9 0.00 0.00 0.00 65
20260503051007 34 8 0.0 0.9 0.00 0.00 0.00 66
20260503050503 34 19 0.0 0.0 0.00 0.00 0.00 68
20260503050000 34 359 0.0 0.0 0.00 0.00 0.00 69
20260503045457 34 11 0.0 0.9 0.00 0.00 0.00 69
20260503044954 34 11 0.0 0.0 0.00 0.00 0.00 70
20260503044451 34 29 0.0 0.0 0.00 0.00 0.00 70
20260503043949 34 12 0.0 0.0 0.00 0.00 0.00 70
20260503043444 34 13 0.0 0.0 0.00 0.00 0.00 69
20260503042941 34 8 0.0 0.0 0.00 0.00 0.00 69
20260503042438 34 14 0.0 0.0 0.00 0.00 0.00 69
20260503041935 34 9 0.0 0.9 0.00 0.00 0.00 68
20260503041431 34 7 0.0 0.0 0.00 0.00 0.00 69
20260503040929 35 11 0.0 0.0 0.00 0.00 0.00 69
20260503040426 35 13 0.0 0.0 0.00 0.00 0.00 69
20260503035923 34 20 0.0 0.0 0.00 0.00 0.00 69
20260503035420 35 342 0.0 0.0 0.00 0.00 0.00 69
20260503034918 35 6 0.0 0.0 0.00 0.00 0.00 69
20260503034415 35 19 0.0 0.9 0.00 0.00 0.00 69
20260503033912 35 13 0.0 0.0 0.00 0.00 0.00 69
20260503033409 35 23 0.0 0.9 0.00 0.00 0.00 69
20260503032907 35 15 0.0 0.9 0.00 0.00 0.00 69
20260503032406 35 39 0.0 0.9 0.00 0.00 0.00 69
20260503031903 36 10 0.0 0.0 0.00 0.00 0.00 68
20260503031400 36 16 0.0 0.0 0.00 0.00 0.00 68
20260503030856 36 9 0.0 0.9 0.00 0.00 0.00 67
20260503030353 36 4 0.0 0.9 0.00 0.00 0.00 66
20260503025850 37 34 0.0 0.9 0.00 0.00 0.00 66
20260503025347 36 349 0.9 1.7 0.00 0.00 0.00 67
20260503024844 36 17 0.0 0.9 0.00 0.00 0.00 67
20260503024341 37 36 0.0 0.0 0.00 0.00 0.00 67
20260503023837 37 15 0.0 0.0 0.00 0.00 0.00 66
20260503023335 37 359 0.0 0.0 0.00 0.00 0.00 66
20260503022831 37 43 0.0 0.9 0.00 0.00 0.00 66
20260503022326 37 45 0.0 0.9 0.00 0.00 0.00 66
20260503021823 37 358 0.0 0.0 0.00 0.00 0.00 66
20260503021319 37 31 0.0 0.0 0.00 0.00 0.00 67
20260503020817 37 4 0.0 0.0 0.00 0.00 0.00 66
20260503020315 37 10 0.0 0.0 0.00 0.00 0.00 66
20260503015811 38 12 0.0 0.9 0.00 0.00 0.00 65
20260503015308 38 13 0.0 0.0 0.00 0.00 0.00 65
20260503014803 38 11 0.0 0.0 0.00 0.00 0.00 64
20260503014301 38 21 0.0 0.0 0.00 0.00 0.00 63
20260503013758 38 11 0.0 0.0 0.00 0.00 0.00 63
20260503013256 39 7 0.0 0.0 0.00 0.00 0.00 63
20260503012753 39 6 0.0 0.0 0.00 0.00 0.00 62
20260503012250 39 14 0.0 0.0 0.00 0.00 0.00 62
20260503011747 39 5 0.0 0.0 0.00 0.00 0.00 61
20260503011244 40 359 0.0 0.0 0.00 0.00 0.00 60
20260503010740 40 352 0.0 0.0 0.00 0.00 0.00 59
20260503010237 40 294 0.0 0.0 0.00 0.00 0.00 60
20260503005734 40 359 0.0 0.0 0.00 0.00 0.00 59
20260503005231 41 7 0.0 0.0 0.00 0.00 0.00 58
20260503004727 41 8 0.0 0.0 0.00 0.00 0.00 57
20260503004226 41 28 0.0 0.9 0.00 0.00 0.00 57
20260503003723 42 17 0.0 0.9 0.00 0.00 0.00 56
20260503003220 42 11 0.0 0.0 0.00 0.00 0.00 55
20260503002716 42 38 0.9 1.7 0.00 0.00 0.00 55
20260503002213 42 14 0.0 0.9 0.00 0.00 0.00 54
20260503001709 43 8 0.0 0.9 0.00 0.00 0.00 54
20260503001206 43 42 1.7 1.7 0.00 0.00 0.00 53
20260503000704 43 43 1.7 2.6 0.00 0.00 0.00 52
20260503000203 43 45 0.9 2.6 0.00 0.00 0.00 52
20260502235658 44 25 0.0 4.3 0.00 0.00 0.00 52
20260502235156 44 16 0.0 5.2 0.00 0.00 0.00 51
20260502234651 44 28 2.6 5.2 0.00 0.00 0.00 51
20260502234149 44 23 0.0 4.3 0.00 0.00 0.00 52
20260502233644 44 49 2.6 6.1 0.00 0.00 0.00 51
20260502233136 45 339 3.5 4.3 0.00 0.00 0.00 50
20260502232632 44 117 2.6 5.2 0.00 0.00 0.00 51
20260502232130 43 33 1.7 5.2 0.00 0.00 0.00 53
20260502231626 43 355 3.5 6.1 0.00 0.00 0.00 52
20260502231124 44 9 0.0 5.2 0.00 0.00 0.00 52
20260502230622 44 61 0.9 2.6 0.00 0.00 0.00 53
20260502230120 44 30 1.7 5.2 0.00 0.00 0.00 53
20260502225615 44 23 1.7 7.0 0.00 0.00 0.00 55
20260502225113 44 17 0.9 4.3 0.00 0.00 0.00 55
20260502224609 44 28 2.6 6.1 0.00 0.00 0.00 53